Wind_Speed
13 13 14 15 15 14 14 14 14 15 15 16 16 16 17 18 17 17 17 18 18 18 19 19 20 19 19 19 19 19 19 19 20 20 20 20 20 20 20 21 21 21 20
15 15 16 16 16 17 16 16 16 17 17 17 17 18 18 19 19 20 19 20 20 20 20 21 21 21 21 21 21 21 21 21 21 21 21 21 21 21 21 22 22 22 21
17 17 16 17 17 18 17 17 18 18 19 19 19 19 19 20 20 21 21 22 22 23 23 23 23 23 23 23 23 23 22 22 22 22 22 22 22 22 22 23 23 22 22
18 18 18 18 18 18 18 18 18 19 20 20 21 21 21 21 21 22 23 23 24 24 24 24 24 24 25 25 25 25 24 24 24 24 23 23 23 23 24 24 24 24 24
18 19 19 19 19 19 19 19 20 20 21 21 21 22 22 22 22 23 23 24 24 25 25 26 25 26 27 26 26 26 26 26 26 26 25 24 24 25 25 26 25 25 25
19 20 20 21 21 22 21 22 22 22 22 22 22 23 23 23 24 24 25 25 25 26 27 27 28 28 28 28 28 28 27 27 27 28 27 27 27 27 27 28 28 27 26
21 21 22 22 23 23 23 23 23 24 24 24 24 24 24 25 25 25 26 26 26 27 27 28 29 30 30 30 29 29 29 29 29 29 29 29 28 29 29 29 28 28 28
22 22 23 23 24 25 25 25 25 26 26 26 27 27 27 27 27 27 27 28 28 28 28 29 29 29 30 30 30 30 30 30 30 30 31 30 31 31 31 30 30 30 30
24 24 25 25 25 26 26 25 26 27 27 28 28 29 29 29 29 29 29 29 30 29 29 29 29 29 30 30 30 30 31 31 31 31 31 31 32 31 31 31 31 31 30
25 26 26 27 27 27 27 27 28 28 28 29 29 30 30 30 30 30 30 30 29 30 30 30 30 30 30 30 30 30 30 31 31 32 31 31 32 32 32 31 31 30 30
27 27 28 28 28 28 28 28 29 29 30 30 30 31 30 30 30 31 30 30 29 30 30 30 29 29 29 29 29 30 30 31 31 31 31 32 31 32 32 32 31 30 30
28 28 29 29 28 28 28 29 30 30 30 30 31 31 30 30 30 30 30 30 30 30 30 29 29 29 29 29 30 30 31 31 31 31 31 32 32 32 31 31 31 31 30
30 29 29 29 29 29 30 30 30 30 31 31 31 30 30 30 30 30 31 31 31 31 31 30 30 30 29 30 30 31 31 31 31 31 31 32 32 32 32 31 31 31 30
30 29 28 29 30 30 31 31 31 31 32 32 31 31 31 31 31 31 31 31 31 31 31 30 30 30 30 31 31 31 31 31 31 31 31 31 32 32 32 32 31 30 29
31 31 30 30 31 32 32 31 31 32 32 32 31 31 31 32 31 31 31 31 31 31 31 31 31 31 31 31 31 31 31 32 32 31 31 31 31 31 31 32 31 30 29
31 31 30 31 31 31 31 31 32 32 32 32 32 32 32 31 31 30 30 30 30 31 31 31 31 31 31 31 30 31 31 32 32 31 30 30 30 30 30 30 30 29 29
31 31 30 30 30 31 31 31 31 32 32 32 32 32 32 31 31 31 31 32 31 31 31 31 31 30 30 31 31 31 32 32 31 30 30 30 30 30 29 29 29 28 27
30 30 30 30 30 30 31 31 31 31 32 33 33 33 32 32 31 32 32 32 32 32 31 31 31 31 31 31 31 31 31 31 30 29 29 29 29 29 29 29 28 27 27
30 30 30 30 30 30 31 31 31 32 32 33 33 33 33 33 32 32 32 32 31 32 32 31 31 31 32 32 32 31 30 29 29 29 28 28 28 28 28 28 27 27 27
31 31 31 31 31 30 30 31 32 32 32 32 32 32 32 32 32 32 32 32 32 32 32 32 31 32 31 31 31 30 29 29 28 28 28 28 28 28 27 27 27 27 27
31 31 31 31 31 31 32 32 32 32 31 31 31 31 31 31 31 31 31 31 31 31 31 31 31 31 31 30 29 29 29 28 28 28 28 28 28 28 28 27 26 26 26
30 30 31 32 33 32 31 31 31 31 31 31 30 31 31 31 31 31 30 30 30 31 31 31 31 31 31 30 29 29 29 28 28 27 27 27 27 27 27 26 26 26 26
30 31 32 32 32 31 31 31 31 31 31 31 30 30 30 30 31 30 30 30 30 30 31 31 31 31 30 30 29 28 28 27 27 27 26 26 26 26 26 26 26 26 26
29 30 31 31 31 31 31 31 31 31 31 31 30 30 30 31 30 30 30 30 31 31 31 30 30 29 29 29 28 27 27 27 26 26 26 25 25 25 25 25 26 26 26
29 30 30 31 31 31 30 30 30 31 31 31 30 30 30 30 30 30 30 31 30 30 30 29 28 27 26 25 26 26 26 26 26 26 25 25 25 25 25 25 25 26 25
30 30 31 31 30 30 29 29 30 30 30 30 30 29 29 29 29 29 29 29 29 29 29 28 27 27 26 26 26 26 25 25 25 25 25 25 24 24 24 24 24 24 24
Wind_Direction
300 301 301 301 299 297 293 292 294 295 295 295 295 295 295 293 291 291 290 291 293 293 293 291 290 289 287 285 283 284 285 285 284 283 284 287 286 286 286 287 286 288 289
299 301 300 299 299 297 294 295 295 295 296 297 297 296 295 294 292 291 290 290 291 293 292 291 290 289 286 284 282 284 284 285 284 283 284 286 285 284 285 286 286 284 284
299 301 302 301 299 297 293 294 294 294 294 295 296 296 295 293 293 291 290 290 292 291 290 289 289 288 287 285 283 282 283 284 285 284 284 284 285 286 285 284 283 282 281
298 300 300 300 300 298 295 295 294 293 293 294 294 294 294 293 292 291 290 290 290 289 289 289 287 286 285 285 284 282 282 283 284 284 284 283 283 284 285 284 282 282 281
299 299 299 298 298 298 297 298 296 295 294 293 293 292 292 293 292 292 291 290 289 289 288 288 286 285 284 283 283 281 281 281 281 282 282 283 283 282 283 282 281 282 282
296 298 299 297 295 295 294 296 295 295 294 293 292 292 292 292 292 292 291 291 291 291 290 288 286 284 284 282 282 280 279 279 279 280 280 282 282 282 282 282 280 280 281
293 294 296 297 295 293 294 294 294 295 294 294 293 292 292 292 292 292 292 292 290 290 290 288 286 284 283 281 280 279 279 278 278 279 279 280 280 280 281 282 281 280 279
292 292 293 295 296 296 294 293 293 294 293 294 294 293 293 294 294 295 294 292 290 289 288 288 288 286 284 282 280 279 279 278 278 279 279 280 280 280 280 280 280 280 280
291 291 292 293 294 295 294 295 293 293 293 294 295 295 294 294 293 292 292 291 291 289 289 288 288 286 285 283 281 280 280 279 278 278 279 280 279 279 279 280 280 279 279
292 291 290 291 292 293 292 294 294 293 292 292 292 293 293 292 291 291 290 290 290 289 289 289 288 287 286 283 281 281 281 280 279 280 280 279 279 279 279 279 280 280 279
291 291 291 290 290 291 293 294 295 295 293 293 294 293 293 293 293 292 292 292 291 291 290 289 288 288 287 285 284 283 283 282 281 280 280 280 280 280 279 279 280 281 280
287 288 289 290 290 292 293 294 295 295 295 295 295 294 293 294 295 295 294 293 292 291 291 290 288 288 287 286 285 284 283 283 282 280 279 279 279 280 279 279 280 280 280
286 285 287 288 291 293 294 294 295 296 296 296 295 295 296 296 295 293 292 291 291 291 291 290 288 288 288 286 285 285 283 282 282 281 279 278 278 279 279 279 279 279 278
286 286 287 289 291 292 294 294 295 296 296 296 295 295 295 294 294 293 291 291 290 290 290 288 288 287 287 286 286 285 284 283 282 281 280 280 279 279 278 278 278 278 277
288 287 286 288 291 291 293 296 298 298 298 297 296 296 295 295 294 293 291 290 290 289 288 287 286 287 287 287 287 286 284 282 281 280 279 279 280 281 280 279 276 275 275
290 289 288 290 291 293 295 297 298 298 298 298 298 297 295 295 294 293 292 291 290 290 290 289 288 288 288 288 288 288 287 284 282 280 280 280 280 280 279 278 276 275 275
290 291 291 293 293 293 294 296 298 299 298 298 297 298 297 295 295 293 292 292 291 290 290 290 290 289 289 289 288 289 288 286 283 281 281 280 280 279 278 277 278 275 275
290 292 293 294 295 295 295 296 297 298 298 298 297 297 297 296 294 293 292 292 291 291 291 291 291 291 290 290 290 290 288 284 282 281 282 281 280 279 277 276 276 275 275
291 293 295 295 296 296 295 295 295 296 297 297 297 296 295 295 294 294 293 292 291 292 292 292 292 292 291 290 289 288 287 284 283 282 282 280 280 279 278 275 273 272 273
290 292 294 294 294 294 294 294 296 298 298 298 297 296 295 295 295 294 292 292 293 294 294 293 293 292 291 290 288 286 285 285 284 283 282 279 278 277 277 276 275 273 272
290 291 291 292 293 292 293 296 297 297 297 297 297 296 297 296 296 295 293 293 294 294 295 294 294 293 291 288 287 287 286 286 285 283 282 280 278 276 275 274 274 273 272
290 290 291 293 294 293 294 296 298 298 297 296 296 297 298 298 299 298 296 295 295 295 295 295 295 292 289 287 286 285 285 285 284 283 282 280 278 276 275 274 273 271 271
290 291 292 293 294 294 295 296 297 298 299 297 296 297 298 300 300 300 299 297 297 296 296 296 295 292 289 288 286 284 283 284 284 282 281 280 278 276 274 272 271 270 271
290 291 293 293 293 294 294 294 296 297 298 298 296 296 296 298 299 299 299 299 298 299 298 296 294 292 290 289 286 284 283 283 282 282 281 279 277 275 274 273 272 271 271
289 291 292 294 293 294 294 295 296 297 299 299 298 298 298 299 299 299 299 300 300 301 301 298 295 293 292 291 289 286 284 283 282 281 281 279 277 275 275 274 273 271 270
290 291 293 294 294 294 296 297 299 300 300 300 301 301 301 300 300 300 301 303 303 302 302 301 297 293 291 291 290 288 285 283 281 281 279 277 277 276 276 275 274 273 272
Height
5864 5863 5862 5860 5859 5857 5855 5854 5853 5852 5850 5849 5848 5846 5845 5844 5842 5841 5840 5839 5838 5837 5835 5834 5833 5832 5831 5829 5828 5828 5827 5826 5825 5825 5824 5823 5822 5821 5820 5819 5818 5817 5816
5861 5859 5857 5856 5855 5853 5852 5850 5849 5847 5846 5844 5843 5842 5840 5839 5837 5836 5835 5834 5833 5831 5830 5829 5827 5826 5825 5824 5823 5822 5821 5821 5820 5819 5818 5817 5816 5815 5814 5814 5813 5812 5811
5857 5855 5854 5852 5851 5849 5847 5846 5844 5843 5841 5839 5838 5836 5835 5834 5832 5831 5829 5828 5827 5825 5824 5823 5821 5820 5819 5818 5817 5816 5815 5815 5814 5813 5812 5811 5810 5809 5809 5808 5806 5806 5805
5853 5851 5850 5848 5846 5844 5843 5841 5839 5838 5836 5834 5832 5831 5829 5828 5826 5825 5823 5822 5820 5819 5818 5816 5815 5814 5813 5812 5811 5809 5808 5808 5807 5806 5806 5805 5804 5803 5802 5801 5800 5799 5798
5848 5847 5845 5843 5841 5840 5838 5836 5834 5832 5830 5828 5827 5825 5824 5822 5820 5818 5817 5815 5813 5812 5811 5809 5808 5806 5805 5804 5803 5802 5801 5801 5800 5799 5799 5798 5797 5796 5795 5794 5793 5792 5791
5843 5842 5840 5838 5836 5834 5833 5831 5829 5827 5825 5823 5821 5819 5817 5816 5814 5812 5810 5808 5806 5805 5803 5802 5800 5799 5798 5797 5795 5794 5794 5793 5792 5791 5791 5790 5790 5789 5788 5787 5785 5785 5784
5837 5835 5834 5832 5830 5828 5827 5825 5823 5821 5819 5817 5815 5812 5810 5809 5807 5805 5803 5801 5799 5797 5795 5794 5792 5791 5789 5788 5787 5786 5785 5784 5784 5783 5783 5782 5781 5780 5779 5778 5777 5776 5776
5831 5829 5827 5826 5824 5822 5820 5818 5816 5814 5812 5810 5808 5806 5803 5801 5799 5797 5795 5793 5791 5789 5787 5785 5784 5782 5780 5779 5778 5777 5776 5775 5775 5774 5774 5773 5772 5771 5770 5769 5768 5768 5767
5825 5823 5821 5819 5817 5815 5813 5811 5809 5807 5805 5802 5800 5798 5796 5793 5791 5789 5787 5785 5783 5781 5779 5777 5775 5773 5772 5770 5769 5768 5767 5766 5766 5765 5764 5763 5762 5761 5761 5760 5759 5758 5758
5818 5816 5814 5812 5810 5808 5806 5804 5801 5799 5797 5794 5792 5789 5787 5784 5782 5780 5778 5776 5774 5772 5770 5768 5766 5764 5763 5761 5760 5759 5758 5757 5756 5755 5754 5754 5753 5752 5751 5750 5750 5749 5748
5810 5808 5806 5804 5802 5800 5798 5795 5793 5791 5788 5786 5783 5781 5778 5776 5773 5771 5769 5767 5765 5763 5761 5759 5757 5755 5754 5752 5751 5750 5749 5747 5746 5745 5745 5744 5743 5742 5741 5740 5740 5739 5739
5802 5800 5798 5796 5794 5792 5789 5787 5785 5783 5780 5777 5775 5772 5770 5767 5765 5762 5760 5758 5756 5754 5752 5750 5748 5746 5745 5743 5742 5741 5739 5738 5737 5736 5735 5734 5733 5732 5731 5731 5730 5730 5729
5794 5792 5790 5788 5786 5784 5781 5779 5777 5774 5771 5769 5766 5764 5761 5759 5756 5754 5751 5749 5747 5745 5743 5741 5739 5737 5736 5734 5733 5731 5730 5728 5727 5726 5725 5725 5724 5723 5722 5721 5721 5720 5720
5785 5783 5781 5779 5778 5776 5773 5771 5768 5765 5763 5760 5758 5755 5753 5750 5747 5745 5742 5740 5737 5735 5733 5732 5730 5728 5727 5725 5724 5722 5720 5719 5718 5717 5716 5715 5714 5713 5712 5711 5711 5710 5710
5776 5775 5773 5771 5769 5767 5764 5762 5759 5756 5754 5751 5749 5746 5743 5741 5738 5735 5733 5730 5728 5726 5724 5722 5720 5719 5717 5716 5714 5712 5711 5709 5708 5707 5706 5705 5704 5703 5702 5701 5700 5700 5701
5768 5766 5764 5762 5760 5758 5756 5753 5750 5748 5745 5742 5739 5737 5734 5731 5728 5726 5723 5721 5718 5716 5714 5713 5711 5709 5708 5706 5705 5703 5701 5699 5698 5697 5696 5695 5694 5693 5692 5691 5691 5691 5691
5760 5758 5756 5754 5752 5750 5747 5745 5742 5739 5736 5733 5730 5727 5724 5721 5719 5716 5714 5711 5709 5706 5705 5703 5701 5700 5698 5696 5695 5693 5691 5690 5688 5687 5686 5685 5684 5684 5683 5682 5681 5681 5681
5752 5750 5748 5746 5743 5741 5739 5736 5733 5730 5728 5724 5721 5718 5715 5712 5709 5707 5704 5702 5700 5697 5695 5694 5692 5690 5688 5687 5685 5683 5681 5679 5678 5677 5676 5676 5674 5674 5673 5673 5672 5672 5672
5743 5741 5739 5737 5735 5732 5730 5727 5725 5722 5719 5716 5713 5709 5706 5703 5700 5697 5695 5692 5690 5688 5686 5684 5682 5680 5678 5676 5675 5673 5672 5670 5669 5668 5667 5666 5665 5665 5664 5663 5663 5663 5663
5735 5733 5731 5729 5726 5724 5721 5719 5716 5713 5710 5707 5704 5700 5697 5694 5691 5689 5686 5683 5681 5679 5677 5675 5673 5670 5668 5666 5665 5663 5662 5661 5660 5658 5658 5657 5656 5655 5655 5654 5654 5654 5654
5727 5725 5723 5720 5718 5715 5713 5710 5707 5704 5701 5698 5695 5692 5688 5685 5682 5680 5677 5675 5672 5670 5667 5665 5663 5661 5658 5656 5655 5654 5653 5652 5650 5649 5648 5647 5647 5646 5646 5645 5645 5645 5645
5718 5716 5714 5712 5709 5707 5704 5701 5698 5695 5692 5689 5686 5683 5680 5677 5674 5671 5668 5666 5663 5661 5658 5655 5653 5650 5648 5646 5645 5644 5643 5642 5641 5640 5639 5638 5637 5637 5636 5636 5636 5636 5636
5709 5707 5705 5702 5700 5698 5695 5692 5689 5686 5683 5680 5677 5674 5671 5668 5665 5662 5659 5657 5654 5651 5648 5645 5642 5640 5638 5637 5635 5634 5633 5633 5632 5631 5630 5629 5628 5628 5627 5627 5627 5627 5627
5700 5698 5696 5694 5691 5688 5686 5683 5680 5677 5674 5671 5668 5665 5663 5660 5657 5654 5651 5648 5645 5642 5639 5636 5633 5630 5628 5627 5625 5625 5624 5623 5622 5622 5621 5620 5619 5619 5618 5618 5618 5618 5618
5692 5689 5687 5684 5682 5679 5676 5674 5671 5668 5665 5662 5659 5656 5654 5651 5648 5645 5642 5639 5636 5633 5630 5627 5624 5622 5620 5618 5616 5616 5615 5614 5613 5612 5612 5611 5610 5610 5609 5609 5609 5609 5609
5683 5680 5678 5675 5673 5670 5667 5665 5662 5659 5657 5654 5651 5648 5645 5642 5639 5636 5634 5631 5628 5625 5621 5618 5616 5613 5611 5610 5608 5607 5606 5605 5604 5603 5602 5602 5601 5601 5600 5600 5600 5600 5600